FREGAT DEB, 45651

Orbit data source: Space-Track

FREGAT DEB, 45651 is space debris in LEO originally from a launch on Mon, 18 Jul 2011 UTC launched from the Tyuratam Missile And Space Complex (TTMTR). Debris objects in space refer to the collection of defunct objects orbiting the Earth. Examples of debris include non-operational satellites, rocket bodies, and fragments generated from explosions, collisions, or faulty payload assembly.

Loading next visibility...
Identifier
45651, 2011-037AT
Orbit
LEO
Country
Flag of CISCIS
Related business
Manufacturer
Lavochkin
Mission
Spacecraft
Bus & Motor
Unknown
Mass
Unknown
Launch date (UTC)
2011-07-18 (14 years ago)
Launch vehicle
Unknown
Launch site
Tyuratam Missile And Space Complex (TTMTR)
Object type
Payload
Rocket body
Debris
Shape & HBR
Unknown shape, 0.2 m
Radar Cross Section
Small (<0.1 m²)

Expand to show TLE details & history
Last TLE update: 15 hours ago

TLE from 15 hours ago
0 FREGAT DEB
1 45651U 11037AT  25347.27247500  .00077991  00000-0  76305-2 0  9997
2 45651  51.5786  22.4118 1057179 308.9761  42.1454 13.17267553249406
Epoch: 2025-12-13T06:32Z
TLE epoch observation values (Epoch: 2025-12-13T06:32:21.839Z)
Latitude
-0.00005°
Longitude
-157.88136°
Altitude
645.21 km
Speed
7.805 km/s
True Right ascension
01h 29m 38s
True Declination
0° 00' 00"
Sunlit
Object was in full shadow at epoch
Visualization orbit readout
Latitude
Unknown
Longitude
Unknown
Altitude
Unknown
Speed
Unknown
Apparent Right ascension
Unknown
Apparent Declination
Unknown
Sunlit
N/A
Visualization observer readout
Local Sidereal Time
20:09:03
Azimuth
Unknown
Elevation
Unknown
Doppler factor
Unknown
Orbital elements
Apogee altitude
1,996.333 km
Perigee altitude
394.964 km
Semi-major axis
7,573.785 km
Eccentricity
0.10572
Inclination
51.5786°
RAAN
22.4118°
Arg. of periapsis
308.9761°
True anomaly
51.11576°
Mean anomaly
42.1454°
Eccentric anomaly
46.5422°
Mean motion
3.29286 °/min
Orbital period
109.33 mins
BSTAR
0.0076305
Loading maneuver chart data...
Computing Atmospheric mass density...
Loading historical data...
Loading historical data...
Loading historical data...
Loading historical data...
Loading historical data...
Loading historical data...
Loading historical data...

Documentation

Showing up to 5 results
|